Retour au catalogue

STARLINK-38130

ActifCommunicationsSSO
NORAD 100187·PAYLOAD·🇺🇸 United States

Lancé Aug 1, 2026 depuis Vandenberg Space Force Base

Loading…

Prochains Passages (prochaines 24 heures)

TLE

FraisSource: Space-Track

Époque: Sep 14, 2026, 12:50 UTC

1 A0187U 26175J   26257.53513652  .00231341  00000-0  15095-2 0  9995
2 A0187  97.2826  99.6205 0001420 122.3554 237.7848 15.75200837  8232

Suivez STARLINK-38130 en temps réel avec AllMySat

Download on the App Store